Wind_Speed
48 49 50 52 54 55 57 58 59 59 60 62 63 64 65 66 66 67 68 69 70 71 70 70 71 71 71 70 70 69 68 67 67 66 65 64 64 63
53 54 55 56 58 58 60 61 61 62 62 63 64 64 65 66 66 66 67 67 67 67 67 67 66 65 65 64 64 63 62 61 60 60 59 59 58 58
57 57 58 59 61 61 62 62 63 63 63 64 65 64 65 65 65 65 64 63 63 63 62 61 60 59 59 58 57 57 57 56 55 54 53 52 51 50
60 60 60 61 62 63 63 63 63 63 63 63 63 64 63 63 62 61 61 60 59 58 57 56 54 53 52 51 50 50 49 48 48 47 47 46 45 45
60 61 61 62 62 63 62 62 62 62 62 61 61 61 61 61 59 58 57 56 54 52 51 49 47 46 45 45 44 43 42 42 42 41 41 41 41 41
61 62 62 62 61 61 61 61 60 60 60 60 59 58 57 55 54 52 50 49 47 45 44 42 42 41 40 39 38 37 37 37 38 38 38 39 39 39
62 62 61 60 60 59 58 58 58 57 56 55 53 51 50 48 47 46 43 40 39 38 37 38 37 37 36 35 35 34 34 34 35 36 37 37 37 37
60 59 58 57 56 55 54 53 51 50 48 47 45 44 43 42 40 38 35 33 31 32 32 33 34 34 33 33 33 33 33 33 34 34 35 36 36 35
55 54 53 51 49 48 47 45 44 42 40 39 37 36 35 34 31 30 29 28 28 27 27 29 31 31 32 31 31 32 32 32 32 32 32 31 32 32
48 47 45 43 42 40 39 39 37 36 34 31 29 27 26 24 23 22 22 24 26 26 26 27 29 30 32 32 32 31 31 31 31 30 29 28 28 27
42 41 38 37 34 33 32 31 30 28 26 24 21 19 18 18 18 18 19 20 22 25 27 28 28 29 31 33 32 32 31 30 29 28 27 25 24 23
34 32 31 29 27 26 24 23 22 20 18 17 15 14 14 14 15 17 18 20 22 24 26 27 28 28 28 30 30 29 29 28 26 25 23 21 19 18
25 23 22 20 19 18 17 16 15 13 13 12 12 13 14 15 16 17 19 21 23 24 25 26 27 28 28 28 28 27 26 25 22 20 17 15 13 12
16 14 13 12 11 11 10 9 9 9 10 10 11 13 14 16 17 18 20 21 23 24 25 26 26 27 27 27 26 25 23 21 19 16 13 10 8 7
10 8 7 7 7 7 7 7 8 9 10 11 12 14 15 16 17 18 20 22 24 24 25 25 26 27 26 25 24 22 21 19 17 14 11 7 4 2
7 7 7 7 7 8 8 8 9 10 11 12 14 15 16 17 18 19 21 23 24 24 24 24 25 26 25 24 23 22 20 18 16 14 12 9 7 5
9 10 10 10 10 10 10 10 11 12 13 15 16 17 18 19 20 20 21 22 22 22 22 23 24 24 25 24 23 21 20 18 17 16 14 12 11 10
11 11 11 11 11 12 12 12 13 14 16 17 17 18 19 20 21 21 22 22 21 21 22 23 23 24 24 23 22 22 21 19 18 17 16 14 14 13
12 12 12 12 12 13 14 14 15 16 17 18 19 20 21 22 22 22 22 21 21 22 22 23 23 22 22 22 23 23 22 21 20 19 18 17 16 15
12 12 13 13 13 14 15 15 16 17 18 19 20 21 22 23 23 23 21 21 21 22 23 23 22 21 21 23 23 23 23 22 21 21 20 19 18 18
12 12 13 13 14 15 15 16 17 17 18 19 21 22 23 24 24 23 21 21 21 22 22 23 22 22 23 24 23 22 23 23 23 22 21 21 20 19
12 13 13 13 14 15 16 16 17 18 19 20 21 22 23 24 24 23 22 21 21 21 22 23 23 23 23 23 23 23 23 24 24 24 23 23 22 22
12 12 13 14 14 15 15 16 17 18 19 20 21 22 23 23 23 23 22 22 21 21 22 23 23 23 23 23 23 23 24 24 24 24 23 23 23 23
Wind_Direction
289 289 288 289 289 289 289 289 288 289 288 288 287 287 286 286 286 286 287 287 288 288 288 288 287 286 285 285 284 283 282 281 280 279 278 276 274 272
289 289 289 289 290 290 290 289 289 288 288 287 287 286 287 287 288 288 289 290 290 290 289 289 288 288 287 286 285 284 283 282 280 279 277 276 274 272
289 289 289 290 290 290 289 289 288 288 288 287 287 287 288 289 290 291 292 291 291 292 292 291 291 291 290 289 288 286 284 283 281 279 278 276 274 272
289 289 289 289 289 289 289 288 288 288 288 287 288 289 290 291 293 293 293 293 294 294 294 294 294 293 292 291 290 288 287 285 283 281 279 277 275 272
288 288 288 288 288 288 288 288 288 288 289 289 289 290 291 292 293 294 294 295 296 296 296 296 295 295 295 294 293 292 289 287 285 283 280 277 275 272
287 287 288 288 288 288 289 289 290 290 291 291 291 292 292 293 294 295 296 297 298 299 299 299 299 299 299 299 298 296 293 290 287 284 281 278 275 272
288 288 289 289 289 289 290 290 291 291 292 293 293 294 294 295 295 296 297 299 300 301 303 303 304 305 304 304 303 301 298 294 290 286 282 279 276 272
290 290 290 290 290 291 291 292 292 292 293 294 294 294 295 296 297 298 299 301 302 304 306 306 307 308 308 307 305 304 301 298 294 290 285 280 276 271
291 291 291 291 292 292 293 293 293 294 295 296 296 297 297 298 298 299 302 305 307 309 311 310 311 311 311 310 308 306 305 302 298 294 289 284 278 272
292 292 292 293 294 294 295 296 298 299 300 300 300 300 301 301 303 304 307 310 313 315 317 317 317 316 315 314 313 310 308 306 302 297 291 287 281 275
292 292 293 294 295 296 297 299 301 303 304 306 307 307 307 309 311 314 316 318 319 321 322 322 322 321 319 318 317 315 312 310 306 300 293 288 282 275
296 296 296 296 298 299 300 303 306 310 313 316 318 319 321 322 322 323 325 325 324 323 324 324 324 323 322 321 321 320 319 316 312 306 298 291 283 274
301 300 300 302 304 306 309 313 316 320 326 330 334 336 336 335 334 334 332 330 329 328 328 328 328 329 330 330 329 328 327 326 322 316 308 296 285 274
310 311 313 315 319 323 328 334 338 342 347 350 349 347 345 344 341 338 336 334 333 334 334 335 336 337 337 338 338 339 340 341 339 335 327 314 294 276
332 339 347 354 360 5 7 9 10 10 6 2 358 355 352 348 345 342 341 340 340 340 341 342 343 344 345 347 350 352 353 355 357 358 359 357 348 318
22 36 43 45 41 37 34 30 25 20 15 10 5 1 358 355 352 350 348 347 346 346 349 351 352 354 356 358 2 5 8 11 15 19 26 35 45 59
59 62 62 59 54 46 41 37 32 28 22 16 11 7 4 1 358 356 354 353 354 356 359 360 2 5 8 11 13 16 20 24 29 34 41 50 59 68
71 70 67 61 54 49 47 42 37 31 25 19 16 13 10 7 5 3 2 3 5 7 8 9 11 14 16 19 23 26 28 33 38 43 51 59 66 72
73 69 64 60 56 53 48 41 34 28 24 22 21 19 17 14 12 10 10 12 14 15 15 17 19 21 24 26 30 33 36 41 46 51 57 65 69 72
69 64 62 59 55 49 42 35 31 29 28 27 26 23 20 18 17 17 18 20 20 21 22 23 26 30 32 33 35 38 41 46 50 56 61 65 70 74
65 62 60 56 50 43 37 34 33 33 32 29 26 23 22 21 21 22 24 24 24 26 28 30 33 36 38 39 40 44 48 51 56 61 64 67 71 76
62 59 56 50 43 38 36 37 37 36 32 28 25 24 23 23 24 25 27 27 29 31 34 35 38 41 43 44 47 51 54 57 60 62 66 69 73 78
58 55 48 42 39 39 40 40 37 34 30 27 26 24 24 25 26 28 29 31 33 35 38 40 42 44 46 49 51 54 57 60 63 65 67 71 74 78
Height
5778 5775 5771 5768 5764 5760 5756 5752 5748 5744 5739 5733 5728 5722 5717 5713 5708 5703 5698 5693 5687 5681 5675 5669 5664 5658 5653 5648 5643 5638 5634 5630 5627 5624 5622 5620 5619 5618
5764 5761 5757 5753 5749 5745 5741 5736 5732 5727 5723 5717 5711 5705 5699 5695 5690 5685 5680 5674 5668 5662 5656 5650 5644 5639 5633 5628 5623 5618 5614 5610 5607 5604 5602 5600 5599 5598
5749 5745 5742 5737 5733 5729 5724 5719 5715 5710 5705 5700 5694 5688 5682 5678 5673 5667 5661 5656 5650 5643 5637 5631 5626 5620 5615 5609 5604 5600 5596 5592 5589 5586 5584 5582 5581 5581
5734 5729 5725 5721 5716 5711 5706 5701 5697 5692 5688 5683 5677 5671 5665 5660 5656 5650 5644 5638 5632 5626 5620 5615 5609 5604 5598 5593 5588 5583 5579 5575 5572 5570 5568 5567 5566 5565
5717 5713 5708 5704 5699 5694 5689 5684 5679 5674 5670 5666 5661 5655 5649 5644 5640 5635 5628 5622 5616 5611 5605 5600 5595 5589 5584 5579 5574 5570 5565 5561 5558 5556 5554 5552 5551 5551
5701 5696 5691 5687 5682 5677 5672 5667 5663 5658 5653 5649 5644 5639 5634 5629 5625 5621 5616 5609 5603 5597 5592 5587 5582 5577 5572 5567 5562 5558 5553 5549 5546 5543 5541 5539 5538 5537
5684 5679 5674 5669 5664 5660 5655 5651 5647 5642 5637 5633 5629 5625 5620 5616 5611 5607 5603 5598 5592 5587 5583 5576 5572 5567 5561 5557 5552 5547 5542 5538 5535 5531 5528 5526 5525 5524
5668 5662 5657 5653 5648 5644 5640 5636 5632 5628 5624 5620 5616 5612 5609 5604 5600 5596 5593 5589 5585 5580 5575 5569 5563 5558 5553 5548 5543 5538 5533 5528 5524 5520 5516 5514 5512 5512
5652 5647 5642 5638 5634 5630 5626 5622 5619 5616 5613 5610 5606 5603 5599 5595 5592 5588 5584 5580 5576 5573 5568 5563 5557 5551 5545 5540 5535 5529 5524 5518 5514 5509 5505 5503 5501 5500
5638 5633 5629 5625 5622 5619 5616 5613 5610 5606 5604 5600 5598 5595 5592 5588 5585 5582 5579 5575 5570 5566 5562 5557 5551 5544 5538 5532 5526 5521 5515 5509 5504 5499 5496 5493 5491 5490
5625 5621 5618 5615 5612 5610 5608 5604 5601 5599 5596 5594 5592 5589 5586 5583 5580 5577 5574 5570 5566 5561 5556 5550 5545 5539 5531 5524 5518 5512 5506 5500 5495 5490 5486 5484 5482 5481
5614 5611 5609 5607 5605 5603 5601 5599 5596 5594 5592 5590 5588 5585 5583 5580 5577 5573 5570 5566 5561 5557 5551 5546 5540 5534 5527 5519 5512 5505 5498 5492 5486 5482 5478 5476 5474 5474
5606 5604 5603 5601 5599 5598 5597 5595 5593 5591 5589 5587 5585 5583 5580 5577 5573 5570 5566 5562 5557 5552 5547 5541 5535 5528 5521 5514 5507 5499 5493 5486 5480 5475 5472 5470 5469 5469
5602 5600 5599 5598 5597 5596 5595 5593 5592 5590 5588 5586 5584 5581 5578 5575 5571 5567 5563 5559 5554 5548 5542 5536 5530 5523 5517 5509 5502 5495 5488 5482 5477 5472 5468 5466 5466 5466
5600 5599 5598 5597 5596 5595 5594 5593 5591 5590 5588 5586 5583 5580 5577 5573 5569 5565 5561 5556 5551 5545 5539 5533 5527 5520 5513 5506 5499 5493 5487 5481 5476 5471 5468 5466 5465 5465
5600 5599 5598 5598 5597 5596 5595 5594 5592 5591 5589 5586 5583 5580 5576 5572 5568 5564 5559 5554 5548 5543 5537 5531 5525 5518 5511 5505 5498 5492 5486 5481 5477 5473 5470 5468 5466 5466
5602 5601 5601 5600 5600 5599 5597 5596 5594 5592 5590 5587 5584 5580 5576 5572 5567 5563 5558 5553 5547 5542 5536 5530 5524 5518 5512 5505 5499 5494 5488 5484 5479 5476 5473 5471 5470 5469
5605 5605 5604 5604 5603 5601 5600 5598 5596 5594 5591 5588 5584 5580 5576 5572 5567 5562 5557 5552 5547 5542 5536 5531 5525 5519 5514 5508 5503 5497 5492 5487 5483 5480 5477 5476 5474 5473
5609 5609 5608 5607 5606 5604 5603 5601 5599 5596 5593 5589 5585 5581 5577 5572 5567 5562 5557 5553 5548 5543 5538 5532 5527 5522 5517 5512 5507 5501 5496 5492 5488 5485 5483 5481 5480 5479
5613 5612 5611 5610 5609 5607 5606 5603 5601 5598 5595 5591 5587 5583 5578 5574 5569 5564 5559 5554 5550 5545 5540 5535 5530 5525 5521 5516 5511 5506 5502 5498 5494 5491 5489 5487 5486 5485
5617 5616 5615 5614 5612 5610 5608 5606 5603 5600 5597 5593 5589 5585 5581 5576 5571 5566 5561 5557 5553 5548 5544 5539 5534 5529 5524 5520 5516 5512 5508 5504 5501 5498 5496 5494 5493 5492
5620 5619 5618 5617 5615 5613 5610 5608 5605 5602 5599 5595 5592 5587 5583 5578 5573 5569 5564 5560 5556 5552 5547 5543 5538 5534 5530 5526 5522 5518 5514 5511 5508 5505 5503 5502 5500 5499
5624 5623 5621 5620 5617 5615 5613 5611 5608 5605 5602 5598 5594 5590 5585 5581 5576 5572 5567 5563 5559 5555 5551 5547 5543 5539 5536 5532 5528 5525 5521 5519 5516 5513 5512 5509 5508 5507